AFR3105 DIAP-LFBD

Flight info

Callsign AFR3105
Flight time N/A
Altitude 33000
Route ONLON UA614 TIO UG26 BAY UA604 MOS UA34 HAMRA N608 MATEX DCT TURUV N860 ANETO DCT VAVIX
Aircraft A306/H-SDE3FGHIRWY/LB1

Departure

Time 2026-05-07 10:28
Airport Félix-Houphouët-Boigny International Airport (DIAP)

Arrival

Time N/A
Airport Bordeaux–Mérignac Airport (LFBD)
Time Latitude Longitude Altitude Speed Heading
2026-05-07 10:28 5.40684 -3.90517 4785 ft 273 kts
2026-05-07 10:28 5.42549 -3.90247 5613 ft 272 kts
2026-05-07 10:29 5.44450 -3.89958 6341 ft 276 kts 10°
2026-05-07 10:29 5.46351 -3.89664 7073 ft 278 kts 11°
2026-05-07 10:29 5.48285 -3.89369 7800 ft 280 kts 12°
2026-05-07 10:30 5.52185 -3.88761 9159 ft 284 kts 13°
2026-05-07 10:30 5.54200 -3.88435 9790 ft 288 kts 14°
2026-05-07 10:30 5.56198 -3.88108 10281 ft 297 kts 13°
2026-05-07 10:30 5.58309 -3.87754 10410 ft 317 kts 13°
2026-05-07 10:31 5.60590 -3.87378 10545 ft 337 kts 13°
2026-05-07 10:31 5.62959 -3.86995 10671 ft 357 kts 13°
2026-05-07 10:31 5.65502 -3.86585 10835 ft 374 kts 12°
2026-05-07 10:31 5.68117 -3.86165 11266 ft 383 kts 12°
2026-05-07 10:32 5.70786 -3.85738 11789 ft 389 kts 12°
2026-05-07 10:32 5.73463 -3.85313 12418 ft 390 kts 12°
2026-05-07 10:32 5.76154 -3.84884 12959 ft 394 kts 12°
2026-05-07 10:32 5.78875 -3.84449 13475 ft 399 kts 12°
2026-05-07 10:33 5.81669 -3.83995 14056 ft 401 kts 12°
2026-05-07 10:33 5.84415 -3.83546 14588 ft 405 kts 12°
2026-05-07 10:33 5.87225 -3.83092 15127 ft 408 kts 12°
2026-05-07 10:33 5.90076 -3.82637 15658 ft 411 kts 11°
2026-05-07 10:34 5.92925 -3.82179 16151 ft 414 kts 11°
2026-05-07 10:34 5.95791 -3.81718 16667 ft 416 kts 11°
2026-05-07 10:34 5.98715 -3.81248 17141 ft 419 kts 11°
2026-05-07 10:34 6.01610 -3.80783 17600 ft 422 kts 11°
2026-05-07 10:35 6.04554 -3.80314 18005 ft 426 kts 11°
2026-05-07 10:35 6.07501 -3.79845 18438 ft 428 kts 11°
2026-05-07 10:35 6.10503 -3.79366 18859 ft 431 kts 11°
2026-05-07 10:35 6.13506 -3.78885 19242 ft 435 kts 11°
2026-05-07 10:36 6.16521 -3.78401 19619 ft 438 kts 11°
2026-05-07 10:36 6.19566 -3.77910 20022 ft 441 kts 11°
2026-05-07 10:36 6.22643 -3.77416 20387 ft 444 kts 11°
2026-05-07 10:36 6.25682 -3.76928 20745 ft 447 kts 11°
2026-05-07 10:37 6.28794 -3.76426 21108 ft 449 kts 11°
2026-05-07 10:37 6.31907 -3.75924 21436 ft 453 kts 11°
2026-05-07 10:37 6.35055 -3.75416 21759 ft 456 kts 11°
2026-05-07 10:37 6.38209 -3.74909 22099 ft 458 kts 11°
2026-05-07 10:38 6.40516 -3.74540 22341 ft 460 kts 11°
2026-05-07 10:38 6.44523 -3.73895 22727 ft 465 kts 12°
2026-05-07 10:38 6.47788 -3.73368 23074 ft 467 kts 12°
2026-05-07 10:38 6.50990 -3.72850 23407 ft 469 kts 11°
2026-05-07 10:39 6.54247 -3.72325 23706 ft 472 kts 11°
2026-05-07 10:39 6.57532 -3.71796 24005 ft 475 kts 11°
2026-05-07 10:39 6.60846 -3.71262 24309 ft 477 kts 11°
2026-05-07 10:39 6.64005 -3.70756 24616 ft 479 kts 11°
2026-05-07 10:40 6.67354 -3.70216 24892 ft 482 kts 11°
2026-05-07 10:40 6.70671 -3.69681 25187 ft 484 kts 11°
2026-05-07 10:40 6.74052 -3.69136 25516 ft 485 kts 11°
2026-05-07 10:40 6.77411 -3.68592 25817 ft 487 kts 11°
2026-05-07 10:41 6.80799 -3.68047 26089 ft 489 kts 11°
2026-05-07 10:41 6.84149 -3.67507 26532 ft 487 kts 11°
2026-05-07 10:41 6.87523 -3.66963 26954 ft 486 kts 11°
2026-05-07 10:41 6.90845 -3.66429 27299 ft 486 kts 11°
2026-05-07 10:42 6.94226 -3.65885 27731 ft 484 kts 11°
2026-05-07 10:42 6.97547 -3.65349 28025 ft 486 kts 11°
2026-05-07 10:42 7.00938 -3.64801 28153 ft 490 kts 11°
2026-05-07 10:42 7.04319 -3.64253 28312 ft 494 kts 11°
2026-05-07 10:43 7.07746 -3.63700 28557 ft 495 kts 11°
2026-05-07 10:43 7.11183 -3.63148 28821 ft 495 kts 11°
2026-05-07 10:43 7.14583 -3.62601 29158 ft 493 kts 11°
2026-05-07 10:43 7.18025 -3.62041 29451 ft 493 kts 11°
2026-05-07 10:44 7.21412 -3.61490 29736 ft 492 kts 11°
2026-05-07 10:44 7.24817 -3.60943 29997 ft 492 kts 11°
2026-05-07 10:44 7.28200 -3.60396 30283 ft 491 kts 11°
2026-05-07 10:44 7.31580 -3.59849 30573 ft 490 kts 11°
2026-05-07 10:45 7.35009 -3.59295 30849 ft 489 kts 11°
2026-05-07 10:45 7.38361 -3.58754 31123 ft 488 kts 10°
2026-05-07 10:45 7.41751 -3.58210 31384 ft 487 kts 10°
2026-05-07 10:45 7.45144 -3.57662 31614 ft 487 kts 10°
2026-05-07 10:46 7.48482 -3.57120 31861 ft 486 kts 10°
2026-05-07 10:46 7.51855 -3.56573 32097 ft 485 kts 10°
2026-05-07 10:46 7.55234 -3.56031 32317 ft 485 kts 10°
2026-05-07 10:46 7.58425 -3.55525 32540 ft 483 kts 10°
2026-05-07 10:47 7.61765 -3.55002 32781 ft 481 kts
2026-05-07 10:47 7.65108 -3.54518 32940 ft 478 kts
2026-05-07 10:47 7.71747 -3.53445 32956 ft 475 kts 10°
2026-05-07 10:48 7.78360 -3.52378 32956 ft 473 kts
2026-05-07 10:48 7.84898 -3.51343 32960 ft 473 kts
2026-05-07 10:49 7.91451 -3.50305 32962 ft 473 kts
2026-05-07 10:49 7.97974 -3.49268 32961 ft 472 kts 10°
2026-05-07 10:50 8.04559 -3.48220 32966 ft 472 kts
2026-05-07 10:50 8.11057 -3.47188 32970 ft 472 kts
2026-05-07 10:51 8.17696 -3.46131 32969 ft 473 kts
2026-05-07 10:51 8.24194 -3.45096 32965 ft 473 kts
2026-05-07 10:52 8.30787 -3.44047 32965 ft 473 kts
2026-05-07 10:52 8.37335 -3.43006 32974 ft 474 kts
2026-05-07 10:53 8.43872 -3.41964 32973 ft 474 kts
2026-05-07 10:53 8.50397 -3.40923 32975 ft 473 kts
2026-05-07 10:54 8.56936 -3.39881 32978 ft 474 kts
2026-05-07 10:54 8.63507 -3.38834 32976 ft 474 kts
2026-05-07 10:55 8.70040 -3.37793 32980 ft 473 kts
2026-05-07 10:55 8.76556 -3.36757 32985 ft 474 kts
2026-05-07 10:56 8.83103 -3.35710 32976 ft 474 kts
2026-05-07 10:56 8.89638 -3.34666 32969 ft 474 kts
2026-05-07 10:57 8.96228 -3.33615 32970 ft 473 kts
2026-05-07 10:57 9.02786 -3.32568 32966 ft 473 kts
2026-05-07 10:58 9.09316 -3.31524 32967 ft 473 kts
2026-05-07 10:58 9.15690 -3.30507 32965 ft 473 kts
2026-05-07 10:59 9.22254 -3.29455 32961 ft 474 kts
2026-05-07 10:59 9.28818 -3.28403 32963 ft 474 kts
2026-05-07 11:00 9.35336 -3.27365 32967 ft 473 kts
2026-05-07 11:00 9.41917 -3.26309 32967 ft 474 kts
2026-05-07 11:01 9.48565 -3.25245 32971 ft 474 kts
2026-05-07 11:01 9.55128 -3.24193 32971 ft 474 kts
2026-05-07 11:02 9.61638 -3.23149 32972 ft 474 kts
2026-05-07 11:02 9.68250 -3.22088 32970 ft 475 kts
2026-05-07 11:03 9.74709 -3.21053 32970 ft 474 kts
2026-05-07 11:03 9.81246 -3.20006 32968 ft 474 kts
2026-05-07 11:04 9.87839 -3.18946 32969 ft 474 kts
2026-05-07 11:04 9.94483 -3.17879 32967 ft 474 kts
2026-05-07 11:05 10.01094 -3.16817 32964 ft 474 kts
2026-05-07 11:05 10.07640 -3.15762 32959 ft 474 kts
2026-05-07 11:06 10.14243 -3.14705 32956 ft 474 kts
2026-05-07 11:06 10.20765 -3.13657 32962 ft 474 kts
2026-05-07 11:07 10.27384 -3.12588 32954 ft 475 kts
2026-05-07 11:07 10.33987 -3.11525 32948 ft 475 kts
2026-05-07 11:08 10.40557 -3.10469 32943 ft 475 kts
2026-05-07 11:08 10.47151 -3.09407 32949 ft 476 kts
2026-05-07 11:09 10.53718 -3.08346 32950 ft 475 kts
2026-05-07 11:09 10.60312 -3.07280 32935 ft 475 kts
2026-05-07 11:10 10.66892 -3.06219 32937 ft 475 kts
2026-05-07 11:10 10.73474 -3.05153 32931 ft 476 kts
2026-05-07 11:11 10.80026 -3.04099 32934 ft 476 kts
2026-05-07 11:11 10.86600 -3.03034 32918 ft 477 kts
2026-05-07 11:12 10.93247 -3.01960 32927 ft 476 kts
2026-05-07 11:12 10.99815 -3.00899 32939 ft 476 kts
2026-05-07 11:13 11.06406 -2.99831 32929 ft 476 kts
2026-05-07 11:13 11.13022 -2.98760 32922 ft 476 kts
2026-05-07 11:14 11.19575 -2.97699 32922 ft 477 kts
2026-05-07 11:14 11.26161 -2.96631 32920 ft 476 kts
2026-05-07 11:15 11.32721 -2.95569 32912 ft 477 kts
2026-05-07 11:15 11.39170 -2.94524 32920 ft 478 kts
2026-05-07 11:16 11.45744 -2.93456 32917 ft 477 kts
2026-05-07 11:16 11.52342 -2.92381 32915 ft 478 kts
2026-05-07 11:17 11.58974 -2.91306 32912 ft 478 kts
2026-05-07 11:17 11.65541 -2.90241 32914 ft 477 kts
2026-05-07 11:18 11.72155 -2.89163 32910 ft 478 kts
2026-05-07 11:18 11.78759 -2.88091 32908 ft 478 kts
2026-05-07 11:19 11.85351 -2.87014 32902 ft 479 kts
2026-05-07 11:19 11.91966 -2.85942 32904 ft 478 kts
2026-05-07 11:20 11.98609 -2.84858 32908 ft 479 kts
2026-05-07 11:20 12.05183 -2.83786 32907 ft 478 kts
2026-05-07 11:21 12.11843 -2.82701 32897 ft 480 kts